星链-31555 (STARLINK-31555 )

导读

STARLINK-31555是美国SpaceX公司星链星座中的卫星,于2024年3月31日发射升空,部署于近地轨道。作为星链互联网卫星星座的组成部分,它承担全球宽带互联网服务任务,可为基础设施薄弱地区提供高速低延迟网络接入,支撑远程通信、在线娱乐等应用,助力星链星座持续拓展覆盖规模与服务能力。

基本信息
目录编号:
59351
目录名称:
STARLINK-31555
国际标识:
2024-060D
轨道中心:
EARTH
卫星名称:
星链-31555
卫星全名:
星链-31555 (STARLINK-31555 )
卫星状态:
在轨 (已飞行809 天)
发射日期:
2024-03-31 UTC
国别 :
美国 (US)
星等 :
--
轨道信息
数据来源 国际轨道数据
星历时间: 2026-06-16T18:28:24+0800
1天前
查看轨道信息
半长轴: 6861.161km
偏心率: 0.0001032
轨道倾角: 43.000°
近地点辐角 282.435°
升交点赤经 62.294°
平近点角 77.638°
近地点: 482.315km
远地点: 483.733km
周期: 94.266分钟
每日圈数: 15.275884
详细信息
固有亮度:
5
最大亮度:
0.3
卫星平台:
Starlink v2.0 mini
覆盖范围:
全球
运营商:
太空探索技术公司
运营商所在国:
美国
制造商(研发单位):
太空探索技术公司
制造商所在国:
美国
使用方式:
暂无
卫星简介
星链(Starlink)计划是由太空探索技术公司(SpaceX)提出的一个巨型低轨卫星互联网星座项目,计划在2019年至2024年间在太空搭建由约1.2万颗卫星组成的“星链”网络,其中1584颗将部署在地球上空550千米处的近地轨道,并从2020年开始工作。该卫星仍在工作。
2D轨道图
3D轨道图
轨道高度分析图
轨道倾角分析图
轨道综合分析图
查看轨道综合分析图